Rios Canyon (246) Station Data

Red Flag Warning: No
Fire Weather Zone: 250
SDGE Region: Eastern
Lat/Lon: 32.843/-116.881

Observations

Time Wind Speed/Gust Temp(F) RH Fuel Moist Fuel Temp(F) Dewpt(F) Tmax(F) Tmin(F) Accum Precip 10-min Precip SL Press(mb)
4/26 2:40am 93 3 G 4 51° 79% - - 45° 54.5° 50.5° - - 1013.0
4/26 2:30am 108 2 G 3 51° 77% - - 44° 54.5° 50.5° - - 1014.0
4/26 2:20am 53 1 G 2 52° 78% - - 45° 54.5° 51.2° - - 1013.0
4/26 2:10am 92 2 G 2 52° 77% - - 45° 54.5° 51.4° - - 1013.0
4/26 2:00am 75 1 G 2 52° 76% - - 44° 54.5° 51.6° - - 1014.0
4/26 1:50am 147 1 G 2 52° 74% - - 45° 54.5° 51.7° - - 1014.0
4/26 1:40am 80 1 G 2 53° 76% - - 46° 54.5° 51.7° - - 1014.0
4/26 1:30am 118 3 G 4 52° 76% - - 45° 54.5° 51.7° - - 1014.0
4/26 1:20am 110 2 G 2 52° 75% - - 45° 54.5° 51.9° - - 1014.0
4/26 1:10am 119 1 G 2 53° 74% - - 45° 54.5° 52.8° - - 1014.0
4/26 1:00am 118 1 G 2 53° 73% - - 45° 54.5° 52.9° - - 1014.0
4/26 12:50am 93 2 G 3 54° 72% - - 45° 54.5° 53.3° - - 1014.0
4/26 12:40am 85 1 G 2 54° 72% - - 45° 54.5° 53.5° - - 1014.0
4/26 12:30am 130 2 G 4 54° 72% - - 45° 54.5° 53.5° - - 1014.0
4/26 12:20am 126 2 G 3 54° 71% - - 45° 54.5° 53.8° - - 1014.0
4/26 12:10am 89 2 G 3 54° 71% - - 45° 54.5° 53.8° - - 1014.0
4/26 12:00am 100 2 G 3 54° 71% - - 45° 70.3° 53.8° - - 1014.0
4/25 11:50pm 114 2 G 2 54° 70% - - 45° 70.3° 53.9° - - 1014.0
4/25 11:40pm 115 0 G 2 54° 69% - - 45° 70.3° 54.1° - - 1014.0
4/25 11:30pm 136 0 G 1 55° 68% - - 44° 70.3° 54.4° - - 1014.0
4/25 11:20pm 127 1 G 2 56° 67% - - 45° 70.3° 55° - - 1014.0
4/25 11:10pm 115 2 G 3 56° 67% - - 45° 70.3° 55.4° - - 1014.0
4/25 11:00pm 130 2 G 3 56° 66% - - 45° 70.3° 55.7° - - 1014.0
4/25 10:50pm 95 2 G 3 57° 64% - - 45° 70.3° 56.1° - - 1014.0
4/25 10:40pm 118 2 G 4 56° 65% - - 45° 70.3° 56.1° - - 1014.0
4/25 10:30pm 109 3 G 4 57° 65% - - 45° 70.3° 56.3° - - 1015.0
4/25 10:20pm 122 2 G 2 57° 65% - - 45° 70.3° 56.3° - - 1015.0
4/25 10:10pm 141 3 G 5 57° 65% - - 45° 70.3° 56.3° - - 1015.0
4/25 10:00pm 114 2 G 4 57° 63% - - 45° 70.3° 56.7° - - 1015.0
4/25 9:50pm 106 4 G 6 57° 63% - - 45° 70.3° 57.1° - - 1015.0
4/25 9:40pm 109 2 G 3 58° 62% - - 45° 70.3° 57.1° - - 1015.0
4/25 9:30pm 99 1 G 3 58° 62% - - 45° 70.3° 57.7° - - 1015.0
4/25 9:20pm 103 2 G 4 58° 62% - - 45° 70.3° 57.7° - - 1015.0
4/25 9:10pm 106 2 G 3 58° 61% - - 45° 70.3° 57.8° - - 1015.0
4/25 9:00pm 100 2 G 3 59° 60% - - 45° 70.3° 57.9° - - 1014.0
4/25 8:50pm 138 1 G 3 59° 60% - - 45° 70.3° 57.9° - - 1014.0
4/25 8:40pm 122 2 G 4 58° 61% - - 45° 70.3° 57.9° - - 1014.0
4/25 8:30pm 104 2 G 3 59° 60% - - 45° 70.3° 57.9° - - 1014.0
4/25 8:20pm 121 1 G 3 59° 59% - - 45° 70.3° 57.9° - - 1014.0
4/25 8:10pm 121 2 G 3 60° 57% - - 45° 70.3° 57.9° - - 1014.0
4/25 8:00pm 177 1 G 2 60° 57% - - 45° 70.3° 57.9° - - 1013.0
4/25 7:50pm 136 2 G 4 61° 55% - - 45° 70.3° 57.9° - - 1013.0
4/25 7:40pm 224 3 G 5 63° 51% - - 44° 70.3° 57.9° - - 1013.0
4/25 7:30pm 232 2 G 4 63° 50% - - 44° 70.3° 57.9° - - 1013.0
4/25 7:20pm 237 2 G 6 63° 49% - - 44° 70.3° 57.9° - - 1013.0
4/25 7:10pm 238 3 G 6 64° 49% - - 44° 70.3° 57.9° - - 1013.0
4/25 7:00pm 235 3 G 8 64° 49% - - 44° 70.3° 57.9° - - 1013.0
4/25 6:50pm 232 4 G 8 64° 48% - - 44° 70.3° 57.9° - - 1013.0
4/25 6:40pm 256 5 G 9 65° 48% - - 44° 70.3° 57.9° - - 1013.0
4/25 6:30pm 253 5 G 9 65° 48% - - 45° 70.3° 57.9° - - 1013.0
4/25 6:20pm 239 4 G 9 65° 47% - - 45° 70.3° 57.9° - - 1012.0
4/25 6:10pm 247 5 G 8 65° 48% - - 45° 70.3° 57.9° - - 1012.0
4/25 6:00pm 250 5 G 9 66° 47% - - 45° 70.3° 57.9° - - 1012.0
4/25 5:50pm 245 5 G 10 66° 47% - - 45° 70.3° 57.9° - - 1012.0
4/25 5:40pm 254 6 G 11 66° 46% - - 45° 70.3° 57.9° - - 1013.0
4/25 5:30pm 258 7 G 11 66° 47% - - 46° 70.3° 57.9° - - 1012.0
4/25 5:20pm 249 6 G 15 66° 49% - - 47° 70.3° 57.9° - - 1012.0
4/25 5:10pm 257 6 G 12 66° 51% - - 48° 70.3° 57.9° - - 1012.0
4/25 5:00pm 252 6 G 11 67° 50% - - 48° 70.3° 57.9° - - 1012.0
4/25 4:50pm 263 6 G 10 67° 50% - - 48° 70.3° 57.9° - - 1012.0
4/25 4:40pm 246 6 G 11 68° 49% - - 48° 70.3° 57.9° - - 1012.0
4/25 4:30pm 247 6 G 12 67° 50% - - 48° 70.3° 57.9° - - 1012.0
4/25 4:20pm 271 5 G 10 67° 50% - - 48° 70.3° 57.9° - - 1012.0
4/25 4:10pm 225 4 G 7 68° 49% - - 48° 70.3° 57.9° - - 1012.0
4/25 4:00pm 265 6 G 12 68° 48% - - 47° 70.3° 57.9° - - 1012.0
4/25 3:50pm 268 5 G 12 68° 46% - - 47° 70.3° 57.9° - - 1012.0
4/25 3:40pm 250 5 G 11 68° 46% - - 47° 70.3° 57.9° - - 1012.0
4/25 3:30pm 255 5 G 11 68° 47% - - 47° 70.3° 57.9° - - 1012.0
4/25 3:20pm 197 4 G 10 67° 52% - - 49° 70.3° 57.9° - - 1012.0
4/25 3:10pm 224 5 G 10 68° 49% - - 48° 70.3° 57.9° - - 1012.0
4/25 3:00pm 224 4 G 10 69° 47% - - 48° 70.3° 57.9° - - 1012.0
4/25 2:50pm 222 3 G 7 69° 47% - - 48° 70.3° 57.9° - - 1012.0
4/25 2:40pm 256 5 G 11 68° 49% - - 48° 70.3° 57.9° - - 1013.0
4/25 2:30pm 229 6 G 10 68° 49% - - 48° 70.3° 57.9° - - 1013.0
4/25 2:20pm 235 5 G 12 68° 49% - - 48° 70.3° 57.9° - - 1013.0
4/25 2:10pm 217 6 G 12 68° 51% - - 49° 70.3° 57.9° - - 1013.0
4/25 2:00pm 225 6 G 13 68° 49% - - 48° 70.3° 57.9° - - 1013.0
4/25 1:50pm 223 5 G 11 69° 48% - - 48° 70.3° 57.9° - - 1013.0
4/25 1:40pm 224 5 G 11 69° 47% - - 48° 70.3° 57.9° - - 1013.0
4/25 1:30pm 238 6 G 13 69° 47% - - 47° 70.3° 57.9° - - 1013.0
4/25 1:20pm 215 6 G 11 69° 46% - - 47° 70.3° 57.9° - - 1013.0
4/25 1:10pm 255 6 G 10 68° 48% - - 48° 70.3° 57.9° - - 1013.0
4/25 1:00pm 228 6 G 12 68° 48% - - 48° 70.3° 57.9° - - 1013.0
4/25 12:50pm 216 5 G 11 68° 49% - - 48° 70.3° 57.9° - - 1013.0
4/25 12:40pm 229 5 G 11 68° 49% - - 48° 70.3° 57.9° - - 1013.0
4/25 12:30pm 257 6 G 12 67° 49% - - 48° 70.3° 57.9° - - 1013.0
4/25 12:20pm 248 6 G 10 68° 47% - - 47° 70.3° 57.9° - - 1013.0
4/25 12:10pm 252 5 G 12 67° 48% - - 47° 70.3° 57.9° - - 1013.0
4/25 12:00pm 232 5 G 12 69° 47% - - 48° 70.3° 57.9° - - 1013.0
4/25 11:50am 273 4 G 8 68° 47% - - 47° 69.1° 57.9° - - 1014.0
4/25 11:40am 228 5 G 10 68° 49% - - 48° 68.3° 57.9° - - 1014.0
4/25 11:30am 226 3 G 8 68° 48% - - 47° 68.3° 57.9° - - 1014.0
4/25 11:20am 238 4 G 9 67° 50% - - 48° 67.5° 57.9° - - 1014.0
4/25 11:10am 177 4 G 9 67° 52% - - 49° 67.5° 57.9° - - 1014.0
4/25 11:00am 208 4 G 8 66° 53% - - 48° 66.9° 57.9° - - 1014.0
4/25 10:50am 251 4 G 7 66° 51% - - 47° 66.9° 57.9° - - 1014.0
4/25 10:40am 172 3 G 6 66° 54% - - 48° 66.6° 57.9° - - 1014.0
4/25 10:30am 247 3 G 8 64° 57% - - 48° 66.3° 57.9° - - 1014.0
4/25 10:20am 231 5 G 9 65° 55% - - 48° 66.3° 57.9° - - 1014.0
4/25 10:10am 258 2 G 10 65° 55% - - 48° 66.1° 57.9° - - 1014.0
4/25 10:00am 208 3 G 7 64° 58% - - 49° 65° 57.9° - - 1014.0
4/25 9:50am 236 4 G 8 63° 63% - - 50° 64.1° 57.9° - - 1014.0
4/25 9:40am 229 3 G 11 62° 63% - - 49° 63.6° 57.9° - - 1014.0
4/25 9:30am 168 3 G 8 62° 63% - - 50° 63.6° 57.9° - - 1014.0
4/25 9:20am 215 5 G 9 63° 62% - - 50° 63.6° 57.9° - - 1014.0
4/25 9:10am 196 4 G 7 63° 63% - - 50° 63.6° 57.9° - - 1014.0
4/25 9:00am 215 5 G 10 62° 64% - - 50° 62.7° 57.9° - - 1014.0
4/25 8:50am 225 4 G 7 62° 65% - - 50° 62.5° 57.9° - - 1014.0
4/25 8:40am 209 2 G 7 62° 65% - - 50° 62.5° 57.9° - - 1014.0
4/25 8:30am 221 2 G 5 61° 67% - - 50° 61.9° 57.9° - - 1014.0
4/25 8:20am 202 3 G 5 60° 69% - - 50° 60.8° 57.9° - - 1014.0
4/25 8:10am 234 3 G 6 60° 70% - - 50° 60.3° 57.9° - - 1014.0
4/25 8:00am 251 2 G 5 60° 71% - - 50° 60° 57.9° - - 1014.0
4/25 7:50am 197 2 G 5 59° 72% - - 50° 59.6° 57.9° - - 1014.0
4/25 7:40am 211 2 G 4 59° 72% - - 50° 59.6° 57.9° - - 1013.0
4/25 7:30am 251 3 G 5 59° 72% - - 50° 59.5° 57.9° - - 1013.0
4/25 7:20am 286 3 G 5 59° 73% - - 50° 59.3° 57.9° - - 1013.0
4/25 7:10am 283 3 G 5 59° 74% - - 50° 59° 57.9° - - 1013.0
4/25 7:00am 255 2 G 4 59° 73% - - 50° 59° 57.9° - - 1013.0
4/25 6:50am 248 1 G 4 59° 74% - - 50° 59° 57.9° - - 1013.0
4/25 6:40am 239 1 G 3 59° 74% - - 50° 59° 57.9° - - 1013.0
4/25 6:30am 232 2 G 5 59° 73% - - 50° 59° 57.9° - - 1013.0
4/25 6:20am 296 2 G 5 58° 73% - - 50° 59° 57.9° - - 1013.0
4/25 6:10am 264 2 G 7 59° 73% - - 50° 59° 57.9° - - 1013.0
4/25 6:00am 240 2 G 4 59° 72% - - 50° 59° 57.9° - - 1013.0
4/25 5:50am 257 1 G 3 59° 72% - - 50° 59° 57.9° - - 1012.0
4/25 5:40am 263 2 G 4 59° 72% - - 50° 59° 57.9° - - 1012.0
4/25 5:30am 306 3 G 6 59° 72% - - 50° 59° 57.9° - - 1012.0
4/25 5:20am 319 2 G 4 59° 72% - - 50° 59° 57.9° - - 1012.0
4/25 5:10am 343 2 G 4 58° 72% - - 50° 59° 57.9° - - 1012.0
4/25 5:00am 324 1 G 3 58° 72% - - 49° 59° 57.9° - - 1012.0
4/25 4:50am 254 1 G 3 58° 72% - - 49° 59° 57.9° - - 1012.0
4/25 4:40am 123 1 G 4 58° 71% - - 49° 59° 57.9° - - 1012.0
4/25 4:30am 142 1 G 7 59° 70% - - 49° 59° 57.9° - - 1012.0
4/25 4:20am 67 1 G 3 59° 70% - - 49° 59° 57.9° - - 1012.0
4/25 4:10am 215 1 G 3 58° 71% - - 49° 59° 57.9° - - 1012.0
4/25 4:00am 190 1 G 4 58° 71% - - 49° 59° 57.9° - - 1012.0
4/25 3:50am 185 2 G 5 58° 71% - - 49° 59° 57.9° - - 1012.0
4/25 3:40am 182 3 G 5 58° 71% - - 49° 59° 57.9° - - 1012.0
4/25 3:30am 167 3 G 7 58° 71% - - 49° 59° 57.9° - - 1013.0
4/25 3:20am 159 3 G 6 58° 72% - - 49° 59° 57.9° - - 1013.0
4/25 3:10am 176 4 G 8 58° 73% - - 49° 59° 57.9° - - 1013.0
4/25 3:00am 157 3 G 5 58° 74% - - 50° 59° 57.9° - - 1013.0
4/25 2:50am 193 3 G 5 58° 74% - - 50° 59° 57.9° - - 1013.0
4/25 2:40am 189 4 G 8 58° 73% - - 50° 59° 57.9° - - 1013.0
4/25 2:30am 189 3 G 7 58° 73% - - 50° 59° 57.9° - - 1013.0
4/25 2:20am 208 3 G 8 59° 72% - - 50° 59° 57.9° - - 1013.0
4/25 2:10am 201 2 G 7 59° 72% - - 50° 59° 57.9° - - 1013.0
4/25 2:00am 200 3 G 6 59° 72% - - 50° 59° 57.9° - - 1013.0
4/25 1:50am 184 2 G 5 59° 72% - - 50° 59° 57.9° - - 1013.0
4/25 1:40am 169 3 G 6 59° 71% - - 49° 59° 57.9° - - 1013.0
4/25 1:30am 169 3 G 6 59° 70% - - 49° 59° 57.9° - - 1013.0
4/25 1:20am 187 3 G 7 59° 70% - - 49° 59° 57.9° - - 1013.0
4/25 1:10am 182 2 G 5 59° 71% - - 49° 59° 57.9° - - 1013.0
4/25 1:00am 170 2 G 5 59° 71% - - 49° 58.7° 57.9° - - 1013.0
4/25 12:50am 155 2 G 4 58° 72% - - 49° 58.6° 57.9° - - 1013.0
4/25 12:40am 155 3 G 6 58° 72% - - 49° 58.5° 57.9° - - 1013.0
4/25 12:30am 158 4 G 7 58° 72% - - 49° 58.5° 57.9° - - 1013.0
4/25 12:20am 158 4 G 8 58° 72% - - 49° 58.5° 57.9° - - 1013.0
4/25 12:10am 149 5 G 9 58° 73% - - 49° 58.4° 57.9° - - 1013.0
4/25 12:00am 168 5 G 11 58° 74% - - 50° 70.9° 56.5° - - 1013.0
4/24 11:50pm 185 4 G 10 59° 73% - - 50° 70.9° 56.5° - - 1014.0
4/24 11:40pm 195 3 G 8 59° 73% - - 50° 70.9° 56.5° - - 1014.0
4/24 11:30pm 204 4 G 7 59° 72% - - 50° 70.9° 56.5° - - 1014.0
4/24 11:20pm 192 2 G 4 59° 71% - - 49° 70.9° 56.5° - - 1014.0
4/24 11:10pm 173 2 G 6 59° 70% - - 49° 70.9° 56.5° - - 1014.0
4/24 11:00pm 176 2 G 5 59° 71% - - 49° 70.9° 56.5° - - 1014.0
4/24 10:50pm 153 3 G 7 58° 72% - - 50° 70.9° 56.5° - - 1014.0
4/24 10:40pm 154 4 G 7 58° 72% - - 50° 70.9° 56.5° - - 1013.0
4/24 10:30pm 162 3 G 6 59° 72% - - 50° 70.9° 56.5° - - 1013.0
4/24 10:20pm 170 4 G 7 59° 73% - - 50° 70.9° 56.5° - - 1013.0
4/24 10:10pm 196 4 G 7 59° 73% - - 50° 70.9° 56.5° - - 1013.0
4/24 10:00pm 184 4 G 8 59° 73% - - 50° 70.9° 56.5° - - 1013.0
4/24 9:50pm 185 4 G 8 59° 73% - - 50° 70.9° 56.5° - - 1014.0
4/24 9:40pm 181 5 G 8 59° 72% - - 50° 70.9° 56.5° - - 1014.0
4/24 9:30pm 201 3 G 8 59° 72% - - 50° 70.9° 56.5° - - 1014.0
4/24 9:20pm 193 5 G 8 59° 72% - - 50° 70.9° 56.5° - - 1014.0
4/24 9:10pm 196 3 G 6 59° 72% - - 50° 70.9° 56.5° - - 1014.0
4/24 9:00pm 181 2 G 5 60° 72% - - 50° 70.9° 56.5° - - 1014.0
4/24 8:50pm 198 4 G 7 60° 71% - - 51° 70.9° 56.5° - - 1014.0
4/24 8:40pm 210 5 G 9 60° 71% - - 51° 70.9° 56.5° - - 1014.0
4/24 8:30pm 205 5 G 9 60° 70% - - 51° 70.9° 56.5° - - 1014.0
4/24 8:20pm 202 4 G 8 60° 71% - - 51° 70.9° 56.5° - - 1014.0
4/24 8:10pm 204 3 G 9 61° 71% - - 51° 70.9° 56.5° - - 1013.0
4/24 8:00pm 192 3 G 8 60° 71% - - 51° 70.9° 56.5° - - 1013.0
4/24 7:50pm 190 3 G 7 61° 71% - - 51° 70.9° 56.5° - - 1013.0
4/24 7:40pm 185 3 G 7 61° 69% - - 51° 70.9° 56.5° - - 1013.0
4/24 7:30pm 194 4 G 7 62° 68% - - 51° 70.9° 56.5° - - 1013.0
4/24 7:20pm 202 4 G 7 62° 67% - - 51° 70.9° 56.5° - - 1013.0
4/24 7:10pm 200 3 G 6 62° 67% - - 51° 70.9° 56.5° - - 1013.0
4/24 7:00pm 195 4 G 8 62° 67% - - 51° 70.9° 56.5° - - 1013.0
4/24 6:50pm 206 4 G 8 63° 66% - - 52° 70.9° 56.5° - - 1013.0
4/24 6:40pm 193 3 G 6 63° 67% - - 52° 70.9° 56.5° - - 1013.0
4/24 6:30pm 203 5 G 8 63° 66% - - 52° 70.9° 56.5° - - 1013.0
4/24 6:20pm 198 4 G 7 64° 64% - - 52° 70.9° 56.5° - - 1013.0
4/24 6:10pm 192 4 G 8 64° 63% - - 51° 70.9° 56.5° - - 1013.0
4/24 6:00pm 182 4 G 9 65° 62% - - 51° 70.9° 56.5° - - 1013.0